MDT,Max TemperatureF,Mean TemperatureF,Min TemperatureF,Max Dew PointF,MeanDew PointF,Min DewpointF,Max Humidity, Mean Humidity, Min Humidity, Max Sea Level PressureIn, Mean Sea Level PressureIn, Min Sea Level PressureIn, Max VisibilityMiles, Mean VisibilityMiles, Min VisibilityMiles, Max Wind SpeedMPH, Mean Wind SpeedMPH, Max Gust SpeedMPH,PrecipitationIn, CloudCover, Events, WindDirDegrees
2012-10-1,73,59,45,47,43,36,77,53,28,30.10,30.04,29.94,,,,,,,0.00,,,-1
2012-10-2,79,59,39,45,39,33,86,53,19,30.07,29.91,29.78,,,,,,,0.00,,,-1
2012-10-3,88,68,47,48,37,24,80,45,10,29.98,29.75,29.67,,,,38,35,40,0.00,,,330
2012-10-4,56,47,37,35,29,27,70,51,32,30.36,30.21,30.08,,,,14,10,189,0.00,,,88
2012-10-5,47,41,34,34,32,27,92,75,57,30.28,30.19,30.12,,,,21,12,25,0.01,,,122
2012-10-6,38,36,34,35,34,32,100,93,85,30.30,30.25,30.21,,,,16,9,20,0.05,,,163
2012-10-7,56,45,34,34,32,26,92,64,35,30.28,30.15,30.03,,,,20,8,23,0.00,,,221
2012-10-8,71,51,31,35,30,22,89,53,16,30.07,29.90,29.77,,,,17,7,23,0.00,,,236
2012-10-9,70,53,35,38,30,19,79,48,16,30.17,29.91,29.73,,,,22,13,30,0.00,,,13
2012-10-10,69,51,32,43,36,31,89,61,32,30.21,30.08,29.90,,,,29,15,38,0.00,,,214
2012-10-11,87,66,44,44,36,30,77,45,13,30.08,29.92,29.84,,,,26,11,32,0.00,,,28
2012-10-12,72,56,40,54,40,31,100,72,44,30.16,30.02,29.84,,,,30,12,36,0.87,,,175
2012-10-13,66,55,44,52,40,31,96,62,28,29.92,29.79,29.69,,,,36,18,46,0.00,,,312
2012-10-14,70,57,43,43,39,34,82,55,27,30.19,30.10,29.93,,,,18,8,23,0.00,,,326
2012-10-15,80,61,41,43,38,32,89,54,19,30.06,29.87,29.69,,,,17,7,23,0.00,,,228
2012-10-16,77,64,50,38,34,29,51,36,21,29.76,29.60,29.39,,,,23,12,28,0.00,,,291
2012-10-17,63,48,33,39,29,16,70,44,17,29.93,29.71,29.41,,,,32,12,38,0.00,,,358
2012-10-18,63,47,30,27,23,18,75,48,20,30.08,30.03,29.94,,,,14,5,18,0.00,,,325
2012-10-19,75,54,33,30,26,23,70,43,16,30.05,29.89,29.70,,,,16,7,22,0.00,,,234
2012-10-20,81,62,42,31,26,21,57,34,11,29.76,29.67,29.59,,,,17,11,21,0.00,,,244
2012-10-21,84,64,43,32,24,17,48,29,9,29.68,29.62,29.57,,,,21,8,26,0.00,,,342
2012-10-22,73,57,41,44,37,32,71,50,29,29.84,29.74,29.65,,,,18,10,23,0.00,,,285
2012-10-23,85,67,48,31,26,21,44,27,10,29.73,29.64,29.58,,,,25,12,30,0.00,,,250
2012-10-24,67,55,43,44,38,24,89,61,32,29.79,29.65,29.51,,,,30,13,41,0.00,,,21
2012-10-25,47,40,32,43,27,22,92,69,45,30.27,30.10,29.77,,,,24,17,29,0.00,,,41
2012-10-26,40,31,22,31,26,21,92,74,56,30.48,30.38,30.27,,,,10,6,13,0.02,,,119
2012-10-27,54,39,24,29,25,21,88,62,35,30.31,30.18,30.07,,,,22,9,28,0.00,,,246
2012-10-28,64,44,23,28,22,21,88,54,20,30.19,30.09,29.99,,,,30,11,37,0.00,,,228
2012-10-29,70,52,33,29,26,21,64,41,18,30.08,30.03,29.98,,,,14,6,16,0.00,,,250
2012-10-30,73,55,36,30,28,26,64,42,19,30.05,30.01,29.95,,,,17,7,22,0.00,,,330
2012-10-31,75,56,37,36,29,25,70,43,16,30.09,30.02,29.96,,,,12,5,15,0.00,,,324